User: anonymous   Login
Location: Unspecified
(0.0000°N, 0.0000°E)
Time: 09:51:55
(UTC+00:00)
Language:

SES 6 - Orbit

View from above orbital plane
View from above orbital plane
View from above satellite
View from above satellite

Ground track
Ground track

The orbit data is extracted from the following two-line orbital elements,

1 39172U 13026A   14301.84003156 -.00000268  00000-0  00000+0 0  3664
2 39172 000.0338 011.2156 0001955 212.8820 074.9408 01.00272385  5136
Epoch (UTC): 28 October 2014 20:09:38
Eccentricity: 0.0001955
inclination: 0.0338°
perigee height: 35778 km
apogee height: 35794 km
right ascension of ascending node: 11.2156°
argument of perigee: 212.8820°
revolutions per day: 1.00272385
mean anomaly at epoch: 74.9408°
orbit number at epoch: 513

The dashed part of the orbit path shows where the satellite is in the earth's shadow,  

DLR